AirNav   Pilot Hours Calculator
 
 1235 users online  

16X Propwash Airport
Justin, Texas, USA

GOING TO JUSTIN?


FAA INFORMATION EFFECTIVE 01 DECEMBER 2022

Location

FAA Identifier: 16X
Lat/Long: 33-04-50.2000N 097-21-30.3000W
33-04.836667N 097-21.505000W
33.0806111,-97.3584167
(estimated)
Elevation: 804 ft. / 245 m (estimated)
Variation: 07E (1985)
From city: 3 miles W of JUSTIN, TX
Time zone: UTC -6 (UTC -5 during Daylight Saving Time)
Zip code: 76247

Airport Operations

Airport use: Open to the public
Activation date: 08/1976
Control tower: no
ARTCC: FORT WORTH CENTER
FSS: FORT WORTH FLIGHT SERVICE STATION
NOTAMs facility: FTW (NOTAM-D service available)
Attendance: UNATNDD
Wind indicator: yes
Segmented circle: no
Lights: ACTVT LIRL RWY 17/35 - CTAF.
Beacon: white-green (lighted land airport)
ACTVT ROTG BCN - CTAF.

Airport Communications

CTAF: 122.9
WX ASOS at AFW (6 nm S): PHONE 817-491-6188
WX ASOS at DTO (11 nm NE): 119.325 (940-383-8457)
WX AWOS-3 at LUD (15 nm NW): 118.225 (940-627-2365)
WX ASOS at FTW (16 nm S): PHONE 817-740-3346
WX ASOS at DFW (20 nm SE): PHONE 972-615-2608

Nearby radio navigation aids

VOR radial/distance  VOR name  Freq  Var
FUZr316/14.6RANGER VORTAC115.7006E
TTTr302/20.4MAVERICK VOR/DME113.1006E
CVEr291/25.6COWBOY VOR/DME116.2006E
UKWr134/35.8BOWIE VORTAC117.1506E
MQPr048/38.6MILLSAP VORTAC117.7009E

 
NDB name  Hdg/Dist  Freq  Var  ID
MUFIN356/11.336508EFT ..-. -
PINCK210/14.625704EDT -.. -

Airport Services

Runway Information

Runway 17/35

Dimensions: 3000 x 60 ft. / 914 x 18 m
Surface: asphalt, in excellent condition
Runway edge lights: low intensity
RUNWAY 17  RUNWAY 35
Latitude: 33-05.083920N33-04.589110N
Longitude: 097-21.503135W097-21.506112W
Elevation: 804.0 ft.800.0 ft.
Traffic pattern: rightleft
Runway heading: 173 magnetic, 180 true353 magnetic, 000 true
Markings: basic, in good conditionbasic, in good condition
Obstructions: 45 ft. tree, 305 ft. from runway, 128 ft. left of centerline, 2:1 slope to clear
4 FT FENCE 60 FT DSTC, 130 FT L/R.
22 ft. tree, 201 ft. from runway, 105 ft. right of centerline, 1:1 slope to clear
5 FT FENCE 70 FT DSTC AND 16 FT RD 80 FT DSTC ACRS APCH.

Airport Ownership and Management from official FAA records

Ownership: Privately-owned
Owner: PROPWASH OWNERS ASSOCIATION INC
15687 CESSNA ROAD
JUSTIN, TX 76247
Phone 469-583-4242
PRESIDENT, OWNER'S ASSN.
Manager: RUSSELL SHERWOOD
15851 GUY JAMES ROAD
JUSTIN, TX 76247
Phone 713-542-9570
RSHERWOOD@VERIZON.NET

Airport Operational Statistics

Aircraft based on the field: 109
Single engine airplanes: 94
Multi engine airplanes: 5
Helicopters: 4
Ultralights: 6
    
Aircraft operations: avg 102/week *
94% local general aviation
6% transient general aviation
* for 12-month period ending 17 September 2022

Additional Remarks

FOR CD CTC REGIONAL APCH AT 972-615-2799.
(CONTACT PHONE NR) MCEAGLE145@YAHOO.COM

Instrument Procedures

There are no published instrument procedures at 16X.

Some nearby airports with instrument procedures:

KAFW - Perot Field/Fort Worth Alliance Airport (6 nm S)
4T2 - Kenneth Copeland Airport (9 nm SW)
KDTO - Denton Enterprise Airport (11 nm NE)
KLUD - Decatur Municipal Airport (15 nm NW)
KFTW - Fort Worth Meacham International Airport (16 nm S)
KNFW - Fort Worth Naval Air Station JRB (Carswell Field) Airport (19 nm S)
KDFW - Dallas-Fort Worth International Airport (20 nm SE)
 
Loc | Ops | Rwys | IFR | FBO | Links
Com | Nav | Svcs | Stats | Notes

City of Fort Worth
 
Area around 16X (Propwash Airport)
 
Road maps at: MapQuest Bing Google
 
Aerial photo
WARNING: Photo may not be current or correct
Aerial photo of 16X (Propwash Airport)
Photo by Russell Sherwood
Taken in the Summer of 2016
looking north.

Do you have a better or more recent aerial photo of Propwash Airport that you would like to share? If so, please send us your photo.

 
Sectional chart

 
Airport distance calculator
Flying to Propwash Airport? Find the distance to fly.

From to 16X

Sunrise and sunset
Times for 09-Dec-2022
 Local
(UTC-6)
 Zulu
(UTC)
Morning civil twilight06:5512:55
Sunrise07:2213:22
Sunset17:2223:22
Evening civil twilight17:4923:49

Current date and time
Zulu (UTC)  10-Dec-2022 01:07:46
Local (UTC-6)  09-Dec-2022 19:07:46
 
METAR
KAFW 
7nm S 
100053Z 09004KT 8SM OVC010 17/15 A3006 RMK AO2 SLP176 T01720150
KDTO 
11nm NE 
100053Z 09007KT 10SM OVC013 17/14 A3007 RMK AO2 SLP179 T01720144
KFTW 
15nm S 
100053Z 07007KT 7SM OVC008 17/16 A3006 RMK AO2 SLP173 T01670161
KLUD 
15nm NW 
118.22 940-927-2365
100055Z AUTO 10007KT 10SM OVC011 17/14 A3006 RMK AO2 T01660138
KNFW 
19nm S 
100052Z 08005KT 7SM OVC008 17/15 A3006 RMK AO2 SLP163 T01670150 CHINO S VISNO S $
TAF
KAFW 
7nm S 
092056Z 0921/1018 07005KT P6SM BKN015 FM100600 16004KT 3SM BR VCSH BKN007
KFTW 
15nm S 
092056Z 0921/1018 07005KT P6SM BKN015 FM100600 16004KT 3SM BR VCSH BKN007
KNFW 
19nm S 
0923/1023 VRB06KT 9999 OVC014 QNH3002INS FM100800 18005KT 4800 BR OVC007 QNH3003INS FM102100 33008KT 6000 -SHRA BR VCTS OVC012CB QNH3005INS AUTOMATED SENSOR METWATCH 1005 TIL 1012 T17/0923Z T14/1023Z FN20048
NOTAMs
Click for the latest NOTAMs
NOTAMs are issued by the DoD/FAA and will open in a separate window not controlled by AirNav.

 

 
 

Would you like to see your business listed on this page?

 If your business provides an interesting product or service to pilots, flight crews, aircraft, or users of the Propwash Airport, you should consider listing it here.  To start the listing process, click on the button below
 
Add a business
 

Other Pages about Propwash Airport

Update a link
 
Copyright © AirNav, LLC. All rights reserved. Privacy Policy  Contact